DW8722 Weather Reports


time (UTC)temp
F
wind
direction
speed
knots
gust
knots
rain 1hr
in
rain 24hr
in
rain mn
in
humidity
%
barometer
mb
20260509174105 77 0 2.6 7.0 0.00 0.46 0.00 79 1010.2
20260509173116 78 5 2.6 7.0 0.00 0.46 0.00 78 1010.2
20260509172128 78 5 0.9 7.8 0.00 0.46 0.00 78 1010.3
20260509171123 77 26 2.6 8.7 0.00 0.46 0.00 80 1010.4
20260509170106 77 0 3.5 8.7 0.00 0.46 0.00 80 1010.3
20260509165056 77 335 3.5 7.8 0.00 0.46 0.00 81 1010.4
20260509164054 76 13 2.6 7.0 0.00 0.46 0.00 82 1010.5
20260509163114 76 332 3.5 7.0 0.00 0.46 0.00 82 1010.5
20260509162041 76 355 1.7 8.7 0.00 0.48 0.00 82 1010.3
20260509161039 76 5 3.5 8.7 0.00 0.48 0.00 82 1010.2
20260509160103 75 329 1.7 7.0 0.00 0.48 0.00 82 1010.2
20260509155051 75 355 2.6 7.0 0.00 0.48 0.00 84 1010.1
20260509154107 74 22 2.6 7.0 0.00 0.48 0.00 86 1010.0
20260509153109 73 5 2.6 7.0 0.00 0.48 0.00 87 1010.1
20260509152059 73 43 1.7 5.2 0.00 0.50 0.00 88 1010.2
20260509151046 73 312 1.7 5.2 0.00 0.51 0.00 88 1010.2
20260509150058 73 355 1.7 5.2 0.00 0.51 0.00 89 1010.3
20260509145050 73 310 0.0 1.7 0.00 0.51 0.00 90 1010.2
20260509144101 72 337 0.9 3.5 0.00 0.51 0.00 91 1010.2
20260509143119 72 9 0.0 0.0 0.00 0.51 0.00 90 1010.2
20260509142056 72 44 0.0 0.0 0.00 0.51 0.00 91 1010.1
20260509141029 72 22 0.0 0.0 0.00 0.51 0.00 91 1010.2
20260509140048 72 111 0.0 0.0 0.00 0.51 0.00 91 1010.0
20260509135102 72 90 0.0 0.0 0.00 0.51 0.00 91 1010.1
20260509134108 72 91 0.0 1.7 0.00 0.51 0.00 90 1009.9
20260509133123 72 72 0.0 0.0 0.00 0.51 0.00 90 1009.8
20260509132100 71 33 0.0 0.0 0.00 0.51 0.00 89 1009.9
20260509131109 71 99 0.0 0.0 0.00 0.51 0.00 88 1009.8
20260509130043 70 100 0.0 0.0 0.00 0.51 0.00 88 1009.8
20260509123956 69 65 0.0 0.0 0.00 0.51 0.00 89 1009.9
20260509122929 69 66 0.0 0.0 0.00 0.51 0.00 89 1009.9
20260509121905 68 84 0.0 1.7 0.00 0.51 0.00 89 1009.9
20260509120833 68 81 0.0 0.0 0.00 0.55 0.00 90 1009.8
20260509114723 68 85 0.0 0.9 0.00 0.69 0.00 90 1009.8
20260509113649 68 57 0.0 0.0 0.00 0.69 0.00 90 1009.6
20260509112628 68 57 0.0 1.7 0.00 0.69 0.00 90 1009.4
20260509111622 67 30 0.9 0.9 0.00 0.69 0.00 90 1009.2
20260509110646 67 36 0.9 2.6 0.00 0.69 0.00 90 1009.1
20260509105702 67 9 0.0 1.7 0.00 0.70 0.00 90 1009.0
20260509104636 67 0 1.7 2.6 0.00 0.73 0.00 90 1009.0
20260509103630 67 31 0.0 1.7 0.00 0.88 0.00 91 1008.9
20260509102621 67 144 0.0 0.0 0.00 0.88 0.00 91 1008.7
20260509101644 67 144 0.0 0.0 0.00 0.88 0.00 91 1008.5
20260509095506 68 144 0.0 0.0 0.00 0.88 0.00 91 1008.3
20260509093429 68 150 3.5 8.7 0.00 0.88 0.00 91 1007.6
20260509092443 68 145 3.5 7.0 0.00 0.88 0.00 91 1008.0
20260509091421 68 146 0.0 0.0 0.00 0.88 0.00 91 1008.3
20260509090434 68 114 0.0 5.2 0.00 0.88 0.00 90 1008.4
20260509083146 68 102 3.5 7.0 0.00 0.88 0.00 91 1008.5
20260509082121 68 101 2.6 6.1 0.00 0.88 0.00 91 1008.7
20260509081117 68 93 1.7 6.1 0.00 0.88 0.00 91 1009.1
20260509080129 68 76 0.9 4.3 0.00 0.88 0.00 91 1009.3
20260509075111 68 89 1.7 4.3 0.00 0.88 0.00 91 1009.5
20260509074038 68 110 0.9 2.6 0.00 0.88 0.00 91 1009.8
20260509071939 68 66 0.9 4.3 0.00 0.88 0.00 91 1010.1
20260509070914 68 5 0.0 0.0 0.00 0.88 0.00 91 1010.4
20260509065857 68 0 0.0 0.0 0.00 0.88 0.00 91 1010.6
20260509064847 68 344 0.0 2.6 0.00 0.88 0.00 91 1010.6
20260509063900 68 35 1.7 3.5 0.00 0.88 0.00 91 1010.7
20260509062901 68 5 0.9 4.3 0.00 0.88 0.00 91 1010.6
20260509061919 68 58 1.7 4.3 0.00 0.88 0.00 91 1010.1
20260509060924 68 69 0.9 2.6 0.00 0.88 0.00 91 1009.8
20260509055910 68 123 0.0 2.6 0.00 0.88 0.00 91 1009.6
20260509054924 68 161 0.0 2.6 0.00 0.88 0.00 91 1009.9
20260509053909 68 169 0.0 2.6 0.00 0.88 0.00 91 1010.0
20260509052910 68 169 0.0 0.9 0.00 0.88 0.00 91 1010.1
20260509051909 68 189 0.0 0.0 0.00 0.88 0.00 91 1010.2
20260509024036 70 140 0.0 0.0 0.00 0.42 0.42 85 1009.9
20260509023012 70 140 0.0 0.0 0.00 0.42 0.42 84 1009.7
20260509022006 70 140 0.0 0.0 0.00 0.42 0.42 84 1009.3
20260509020956 70 140 0.0 0.0 0.00 0.42 0.42 82 1009.0
20260509015936 71 140 0.0 0.0 0.00 0.42 0.42 82 1008.9
20260509014902 71 141 0.0 0.0 0.00 0.42 0.42 81 1008.6
20260509013851 72 169 0.0 0.9 0.00 0.42 0.42 80 1008.5
20260509011737 73 169 0.9 3.5 0.00 0.42 0.42 78 1008.3
20260509010738 73 188 0.9 4.3 0.00 0.42 0.42 78 1008.2
20260509005740 73 171 0.9 4.3 0.00 0.42 0.42 78 1008.2
20260509004716 74 200 0.9 3.5 0.00 0.42 0.42 77 1008.2
20260509003647 74 194 1.7 9.6 0.00 0.42 0.42 77 1008.2
20260509002706 74 192 4.3 9.6 0.00 0.42 0.42 75 1007.9
20260509001711 75 196 4.3 7.8 0.00 0.42 0.42 74 1007.9
20260508235546 76 177 5.2 11.3 0.00 0.42 0.42 71 1007.9
20260508234512 76 161 6.1 11.3 0.00 0.42 0.42 70 1008.0
20260508233514 77 144 5.2 10.4 0.00 0.42 0.42 69 1007.9
20260508232526 77 182 6.1 9.6 0.00 0.42 0.42 68 1008.0
20260508231522 78 147 5.2 9.6 0.00 0.42 0.42 68 1008.2
20260508225411 78 157 6.1 10.4 0.00 0.42 0.42 68 1008.1
20260508224343 79 182 4.3 10.4 0.00 0.42 0.42 66 1008.1
20260508223309 79 184 5.2 10.4 0.00 0.42 0.42 67 1008.2
20260508222320 79 196 4.3 8.7 0.00 0.42 0.42 67 1008.1
20260508221307 79 162 4.3 11.3 0.00 0.42 0.42 67 1008.0
20260508220307 79 130 5.2 11.3 0.00 0.42 0.42 66 1008.0
20260508213036 79 185 6.1 12.2 0.00 0.42 0.42 66 1008.7
20260508210916 79 214 6.1 11.3 0.00 0.42 0.42 65 1009.0
20260508205916 79 168 5.2 13.0 0.00 0.42 0.42 66 1009.2
20260508204857 78 219 5.2 13.0 0.00 0.42 0.42 67 1009.5
20260508203840 77 158 6.1 10.4 0.00 0.42 0.42 65 1009.5
20260508202841 77 148 6.1 9.6 0.00 0.42 0.42 68 1009.8
20260508195624 75 136 2.6 7.8 0.00 0.42 0.42 70 1010.4
20260508193514 76 164 2.6 7.8 0.00 0.42 0.42 67 1010.4
20260508192443 76 107 3.5 7.0 0.00 0.42 0.42 66 1010.4
20260508191442 76 175 4.3 11.3 0.00 0.42 0.42 68 1010.4
20260508190457 76 192 5.2 11.3 0.00 0.42 0.42 66 1010.6
20260508184322 75 178 3.5 9.6 0.00 0.42 0.42 70 1010.7
20260508183338 75 134 3.5 9.6 0.00 0.42 0.42 72 1011.0
20260508182339 74 193 2.6 7.8 0.00 0.42 0.42 71 1011.2
20260508180242 73 171 1.7 8.7 0.00 0.42 0.42 77 1011.6